カタログに戻る

COSMOS 839 DEB

運用中UNKNOWN
NORAD 19439·DEBRIS·🇷🇺 Russia

打ち上げ Jul 8, 1976 から Plesetsk Cosmodrome

Loading…

次のパス (今後24時間)

TLE

最新Source: Space-Track

元期: Sep 12, 2026, 18:24 UTC

1 19439U 76067BS  26255.76680744  .00000412  00000-0  16031-2 0  9994
2 19439  65.8730  15.3080 0694928 178.5224 336.5142 12.36358679593620

AllMySatでCOSMOS 839 DEBをリアルタイム追跡

Download on the App Store